Weather Roundup
Issued by NWS

Home | Current Version | Previous Version | Graphics & Text | Print | Product List | Glossary Off
Versions: 1 2 3 4 5 6 7 8 9 10 11 12 13 14 15 16 17 18 19 20 21 22 23 24 25 26 27 28 29 30 31 32 33 34 35 36 37 38 39 40 41 42 43 44 45 46 47 48 49 50

000
NZUS93 KARX 171110
HRRWXR

CURRENT HOURLY OBSERVATIONS ACROSS
MUCH OF THE UPPER MISSISSIPPI VALLEY
NATIONAL WEATHER SERVICE LA CROSSE WI
500 AM CST WED DEC 17 2014


...SOUTHEAST MINNESOTA...


CITY           SKY/WX    TMP DP  RH WIND       PRES   REMARKS
ROCHESTER      CLOUDY    14  10  84 W13       30.24R WCI   0
ROCHESTER/MAYO CLOUDY    15  11  83 W12G21    30.25R WCI   1
WINONA         CLOUDY    21  16  79 W8G16     30.26S WCI  12
AUSTIN         FLURRIES  10   9  92 NW13      30.27R WCI  -5
ALBERT LEA     PTCLDY    10   9  92 W7        30.28S WCI   0
DODGE CENTER   LGT SNOW  12  10  92 CALM      30.25R
PRESTON        FLURRIES  15  12  89 W14       30.24S WCI   0
OWATONNA       PTCLDY    10   7  85 W8        30.28R WCI  -1
FARIBAULT      FLURRIES  10   7  85 W7        30.29R WCI   0
$$

...ELSEWHERE IN MINNESOTA...


CITY           SKY/WX    TMP DP  RH WIND       PRES   REMARKS
MINNEAPOLIS    CLEAR     10   6  84 W8        30.29R WCI  -2
INTNL FALLS    CLOUDY    12   7  80 N7        30.27S WCI   1
DULUTH         LGT SNOW  12   7  80 NW9       30.17S WCI   0
RED WING       LGT SNOW  16  12  86 W7        30.26R WCI   6
REDWOOD FALLS  PTCLDY     7   4  87 W8        30.33S WCI  -6
MANKATO        CLEAR      9   3  78 W7        30.30S WCI  -3
WORTHINGTON    CLEAR      9   5  85 NW7       30.30S WCI  -3
FAIRMONT       CLEAR     10   7  85 NW10      30.30S WCI  -3
$$

...SOUTHWEST WISCONSIN...


CITY           SKY/WX    TMP DP  RH WIND       PRES   REMARKS
LA CROSSE      CLOUDY    23  14  68 NW9       30.25R WCI  13
PRAIRIE DU CHI CLOUDY    23  15  72 W10       30.26S WCI  12
BOSCOBEL       CLOUDY    23  15  71 W8        30.25R WCI  14
LONE ROCK      CLOUDY    27  15  61 NW9       30.23R WCI  18
PLATTEVILLE    CLOUDY    23  18  82 W9        30.23S WCI  13
FORT MC COY    CLOUDY    21  15  75 W7        30.23R WCI  13
CAMP DOUGLAS   CLOUDY    21  19  93 W8        30.20R WCI  11
VIROQUA        CLOUDY    20  18  93 W10       30.20R WCI   8
WIS DELLS      CLOUDY    22  16  76 NW7       30.19R WCI  14
$$

...ELSEWHERE IN WISCONSIN...


CITY           SKY/WX    TMP DP  RH WIND       PRES   REMARKS
MILWAUKEE      CLOUDY    27  16  63 NW15G24   30.15R WCI  15
MADISON        CLOUDY    24  16  71 NW7       30.18S WCI  16
GREEN BAY      PTCLDY    24  17  74 NW12      30.12R WCI  13
EAU CLAIRE     CLOUDY    19  12  74 W8        30.21S WCI   9
BLACK RVR FLS  CLOUDY    21  14  73 NW9G16    30.21S WCI  11
MEDFORD        FLURRIES  17  12  80 NW10      30.14R WCI   5
WAUSAU         CLOUDY    19  10  68 NW15      30.12R WCI   5
WIS RAPIDS     CLOUDY    22  14  71 NW10G18   30.17R WCI  11
MARSHFIELD     CLOUDY    21  15  78 NW13      30.14S WCI   9
RICE LAKE      CLOUDY    18  12  78 NW7       30.22R WCI   8
$$

...NORTHEAST IOWA...


CITY           SKY/WX    TMP DP  RH WIND       PRES   REMARKS
DECORAH        FLURRIES  18  14  86 W9G15     30.23F WCI   6
MASON CITY     MOCLDY    11   7  84 NW12      30.30F WCI  -3
CHARLES CITY   CLOUDY    14  12  92 W12       30.28F WCI   0
OELWEIN        CLOUDY    16  14  93 NW13      30.28S WCI   2
$$

...ELSEWHERE IN IOWA...


CITY           SKY/WX    TMP DP  RH WIND       PRES   REMARKS
DES MOINES     PTCLDY    15   9  76 NW9       30.34S WCI   3
IOWA CITY      CLOUDY    20  14  77 W8        30.32S WCI  10
FORT DODGE     PTCLDY    12   7  79 NW5       30.32F WCI   4
$$

...NORTHERN ILLINOIS...


CITY           SKY/WX    TMP DP  RH WIND       PRES   REMARKS
CHICAGO-OHARE  CLOUDY    26  20  77 NW12      30.19R WCI  16
CHICAGO-MIDWAY FLURRIES  28  20  71 W12       30.20R WCI  18
MOLINE         CLOUDY    22  15  75 W9        30.29S WCI  12
ROCKFORD       CLOUDY    24  17  74 NW12      30.24R WCI  13
PEORIA         CLOUDY    22  14  71 NW8G17    30.30S WCI  12
$$

NOTE: "FAIR" INDICATES FEW OR NO CLOUDS BELOW 12,000 FEET WITH NO
SIGNIFICANT WEATHER AND/OR OBSTRUCTIONS TO VISIBILITY. WIND
SPEEDS ARE IN MILES-PER-HOUR.



USA.gov is the U.S. government's official web portal to all federal, state and local government web resources and services.